New Braunfels, TX

5:45 PM CDT on March 29, 2017 (GMT -0500)
New Braunfels Municipal

Weather History for KBAZ - April, 2013

Change the Weather History Date:

Friday, April 12, 2013

  Actual Average (KRND) Record (KRND)
Temperature  
Mean Temperature 62 °F -  
Max Temperature 81 °F 75 °F 87 °F (2014)
Min Temperature 43 °F 55 °F 41 °F (1997)
Degree Days  
Heating Degree Days 3    
Growing Degree Days 12 (Base 50)    
Moisture  
Dew Point 42 °F    
Average Humidity 56    
Maximum Humidity 89    
Minimum Humidity 23    
Precipitation  
Precipitation 0.00 in - - ()
Sea Level Pressure  
Sea Level Pressure 29.91 in    
Wind  
Wind Speed 5 mph (ESE)    
Max Wind Speed 13 mph    
Max Gust Speed 17 mph    
Visibility 10 miles    
Events      
Averages and records for this station are not official NWS values.
T = Trace of Precipitation, MM = Missing Value Source: NWS Daily Summary

Daily Weather History Graph

Daily Weather History Graph

Search for Another Location

Airport or City:

Trip Planner

Search our weather history database for the weather conditions in past years. The results will help you decide how hot, cold, wet, or windy it might be!

Date:

Astronomy

Apr. 12, 2013 Rise Set
Actual Time 7:08 AM CDT 7:57 PM CDT
Civil Twilight 6:44 AM CDT 8:21 PM CDT
Nautical Twilight 6:15 AM CDT 8:50 PM CDT
Astronomical Twilight 5:46 AM CDT 9:20 PM CDT
Moon 8:29 AM CDT (4/12) 10:18 PM CDT (4/12)
Length of Visible Light 13h 37m
Length of Day
12h 48m
Waxing Crescent, 5% of the Moon is Illuminated
Apr 12
Waxing Crescent
Apr 18
First Quarter
Apr 25
Full
May 2
Last Quarter
May 9
New

Hourly Weather History & Observations

Time (CDT) Temp. Windchill Dew Point Humidity Pressure Visibility Wind Dir Wind Speed Gust Speed Precip Events Conditions
12:51 AM 50.0 °F - 41.0 °F 71% 29.90 in 10.0 mi NNW 3.5 mph - N/A   Clear
1:51 AM 46.0 °F 42.5 °F 41.0 °F 83% 29.92 in 10.0 mi NNW 6.9 mph - N/A   Clear
2:51 AM 46.9 °F - 41.0 °F 80% 29.90 in 10.0 mi North 3.5 mph - N/A   Clear
3:51 AM 44.1 °F 42.5 °F 39.9 °F 85% 29.88 in 10.0 mi NNW 3.5 mph - N/A   Clear
4:51 AM 44.1 °F 41.5 °F 39.9 °F 85% 29.89 in 10.0 mi West 4.6 mph - N/A   Clear
5:51 AM 44.1 °F - 41.0 °F 89% 29.90 in 10.0 mi Calm Calm - N/A   Clear
6:51 AM 43.0 °F 41.3 °F 39.9 °F 89% 29.92 in 10.0 mi NW 3.5 mph - N/A   Clear
7:51 AM 46.0 °F 44.8 °F 43.0 °F 89% 29.95 in 10.0 mi NW 3.5 mph - N/A   Clear
8:51 AM 55.0 °F - 46.0 °F 72% 29.98 in 10.0 mi Calm Calm - N/A   Clear
10:51 AM 66.0 °F - 46.0 °F 48% 29.99 in 10.0 mi South 4.6 mph - N/A   Clear
11:51 AM 70.0 °F - 46.0 °F 42% 29.97 in 10.0 mi SE 6.9 mph - N/A   Clear
12:51 PM 73.9 °F - 44.1 °F 34% 29.96 in 10.0 mi South 8.1 mph - N/A   Clear
1:51 PM 75.9 °F - 41.0 °F 29% 29.94 in 10.0 mi SE 5.8 mph 16.1 mph N/A   Clear
2:51 PM 78.1 °F - 37.9 °F 24% 29.90 in 10.0 mi Variable 6.9 mph - N/A   Clear
3:51 PM 80.1 °F - 39.9 °F 24% 29.86 in 10.0 mi ESE 9.2 mph - N/A   Clear
5:51 PM 81.0 °F - 39.9 °F 23% 29.83 in 10.0 mi ESE 12.7 mph 17.3 mph N/A   Clear
6:51 PM 78.1 °F - 39.9 °F 25% 29.83 in 10.0 mi SE 11.5 mph - N/A   Clear
7:51 PM 73.9 °F - 42.1 °F 32% 29.84 in 10.0 mi ESE 10.4 mph - N/A   Clear
9:51 PM 64.9 °F - 45.0 °F 48% 29.88 in 10.0 mi SE 10.4 mph - N/A   Clear
10:51 PM 64.0 °F - 45.0 °F 50% 29.92 in 10.0 mi SSE 10.4 mph - N/A   Clear
11:51 PM 60.1 °F - 48.0 °F 64% 29.94 in 10.0 mi SSE 4.6 mph - N/A   Clear